• In Österreich
  • Länderverzeichnis
  • Für 7 Tage
  • Wassertemperatur
  • Satellitenkarten
  • Wetterkarte
  • News
  • Widgets
  • user-avatar
    Anmelden

    Stündliche Wetter Glab

    Heute, 15 Oktober, Montag

    Zeit Temperatur Niederschläge Wind Luftdruck Luftfeuchtigkeit
    00:00 +15°C° 0 mm 6 m/S 761 mmHg 60%
    01:00 +15°C° 0 mm 6 m/S 761 mmHg 64%
    02:00 +14°C° 0 mm 6 m/S 761 mmHg 63%
    03:00 +14°C° 0 mm 6 m/S 761 mmHg 62%
    04:00 +14°C° 0 mm 6 m/S 761 mmHg 61%
    05:00 +13°C° 0 mm 6 m/S 761 mmHg 59%
    06:00 +13°C° 0 mm 6 m/S 761 mmHg 57%
    07:00 +13°C° 0 mm 6 m/S 761 mmHg 54%
    08:00 +14°C° 0 mm 6 m/S 761 mmHg 51%
    09:00 +16°C° 0 mm 6 m/S 761 mmHg 47%
    10:00 +17°C° 0 mm 6 m/S 761 mmHg 43%
    11:00 +19°C° 0 mm 6 m/S 761 mmHg 42%
    12:00 +20°C° 0 mm 6 m/S 761 mmHg 40%
    13:00 +21°C° 0 mm 6 m/S 761 mmHg 39%
    14:00 +21°C° 0 mm 5 m/S 761 mmHg 41%
    15:00 +20°C° 0 mm 5 m/S 761 mmHg 43%
    16:00 +20°C° 0 mm 5 m/S 761 mmHg 46%
    17:00 +19°C° 0 mm 4 m/S 761 mmHg 48%
    18:00 +18°C° 0 mm 4 m/S 761 mmHg 49%
    19:00 +17°C° 0 mm 4 m/S 761 mmHg 51%
    20:00 +15°C° 0 mm 4 m/S 761 mmHg 54%
    21:00 +15°C° 0 mm 4 m/S 761 mmHg 56%
    22:00 +14°C° 0 mm 4 m/S 761 mmHg 58%
    23:00 +14°C° 0 mm 4 m/S 761 mmHg 60%

    Morgen, 16 Oktober, Dienstag

    Zeit Temperatur Niederschläge Wind Luftdruck Luftfeuchtigkeit
    00:00 +14°C° 0 mm 4 m/S 761 mmHg 62%
    01:00 +13°C° 0 mm 3 m/S 762 mmHg 64%
    02:00 +13°C° 0 mm 3 m/S 762 mmHg 65%
    03:00 +13°C° 0 mm 3 m/S 762 mmHg 66%
    04:00 +12°C° 0 mm 3 m/S 761 mmHg 68%
    05:00 +12°C° 0 mm 3 m/S 762 mmHg 68%
    06:00 +12°C° 0 mm 3 m/S 762 mmHg 69%
    07:00 +12°C° 0 mm 3 m/S 762 mmHg 70%
    08:00 +13°C° 0 mm 3 m/S 762 mmHg 65%
    09:00 +16°C° 0 mm 3 m/S 762 mmHg 60%
    10:00 +18°C° 0 mm 3 m/S 763 mmHg 55%
    11:00 +19°C° 0 mm 3 m/S 763 mmHg 52%
    12:00 +20°C° 0 mm 2 m/S 763 mmHg 49%
    13:00 +21°C° 0 mm 2 m/S 763 mmHg 46%
    14:00 +20°C° 0 mm 2 m/S 763 mmHg 49%
    15:00 +20°C° 0 mm 2 m/S 762 mmHg 51%
    16:00 +20°C° 0 mm 1 m/S 762 mmHg 54%
    17:00 +18°C° 0 mm 2 m/S 763 mmHg 57%
    18:00 +17°C° 0 mm 2 m/S 763 mmHg 59%
    19:00 +16°C° 0 mm 2 m/S 763 mmHg 62%
    20:00 +15°C° 0 mm 2 m/S 763 mmHg 63%
    21:00 +15°C° 0 mm 2 m/S 763 mmHg 64%
    22:00 +14°C° 0 mm 2 m/S 763 mmHg 65%
    23:00 +14°C° 0 mm 2 m/S 763 mmHg 67%

    übermorgen, 17 Oktober, Mittwoch

    Zeit Temperatur Niederschläge Wind Luftdruck Luftfeuchtigkeit
    00:00 +14°C° 0 mm 2 m/S 763 mmHg 68%
    01:00 +13°C° 0 mm 2 m/S 763 mmHg 69%
    02:00 +13°C° 0 mm 2 m/S 763 mmHg 71%
    03:00 +13°C° 0 mm 2 m/S 763 mmHg 72%
    04:00 +13°C° 0 mm 2 m/S 763 mmHg 74%
    05:00 +12°C° 0 mm 2 m/S 763 mmHg 75%
    06:00 +12°C° 0 mm 2 m/S 763 mmHg 77%
    07:00 +12°C° 0 mm 2 m/S 763 mmHg 78%
    08:00 +14°C° 0 mm 2 m/S 763 mmHg 73%
    09:00 +15°C° 0 mm 2 m/S 763 mmHg 68%
    10:00 +17°C° 0 mm 2 m/S 763 mmHg 63%
    11:00 +18°C° 0 mm 2 m/S 763 mmHg 60%
    12:00 +19°C° 0 mm 2 m/S 763 mmHg 58%
    13:00 +21°C° 0 mm 1 m/S 763 mmHg 55%
    14:00 +20°C° 0 mm 1 m/S 763 mmHg 58%
    15:00 +20°C° 0 mm 1 m/S 763 mmHg 60%
    16:00 +19°C° 0 mm 1 m/S 763 mmHg 63%
    17:00 +18°C° 0 mm 1 m/S 763 mmHg 67%
    18:00 +16°C° 0 mm 1 m/S 763 mmHg 70%
    19:00 +15°C° 0 mm 2 m/S 763 mmHg 73%
    20:00 +15°C° 0 mm 2 m/S 763 mmHg 75%
    21:00 +14°C° 0 mm 2 m/S 763 mmHg 77%
    22:00 +14°C° 0 mm 2 m/S 763 mmHg 79%
    23:00 +14°C° 0 mm 2 m/S 763 mmHg 80%

    18 Oktober, Donnerstag

    Zeit Temperatur Niederschläge Wind Luftdruck Luftfeuchtigkeit
    00:00 +13°C° 0 mm 2 m/S 763 mmHg 81%
    01:00 +13°C° 0 mm 2 m/S 763 mmHg 82%
    02:00 +13°C° 0 mm 2 m/S 763 mmHg 83%
    03:00 +13°C° 0 mm 1 m/S 763 mmHg 84%
    04:00 +12°C° 0 mm 1 m/S 763 mmHg 85%
    05:00 +12°C° 0 mm 1 m/S 763 mmHg 85%
    06:00 +12°C° 0 mm 1 m/S 763 mmHg 85%
    07:00 +12°C° 0 mm 1 m/S 763 mmHg 85%
    08:00 +14°C° 0 mm 1 m/S 763 mmHg 79%
    09:00 +15°C° 0 mm 1 m/S 764 mmHg 72%
    10:00 +18°C° 0 mm 1 m/S 764 mmHg 66%
    11:00 +18°C° 0 mm 2 m/S 764 mmHg 64%
    12:00 +18°C° 0 mm 2 m/S 764 mmHg 61%
    13:00 +19°C° 0 mm 2 m/S 764 mmHg 58%
    14:00 +18°C° 0 mm 2 m/S 764 mmHg 62%
    15:00 +18°C° 0 mm 2 m/S 763 mmHg 65%
    16:00 +17°C° 0 mm 2 m/S 763 mmHg 69%
    17:00 +16°C° 0 mm 2 m/S 764 mmHg 74%
    18:00 +15°C° 0 mm 2 m/S 764 mmHg 79%
    19:00 +13°C° 0 mm 2 m/S 764 mmHg 84%
    20:00 +13°C° 0 mm 2 m/S 764 mmHg 86%
    21:00 +13°C° 0 mm 2 m/S 765 mmHg 88%
    22:00 +12°C° 0 mm 3 m/S 765 mmHg 90%
    23:00 +12°C° 0 mm 3 m/S 765 mmHg 91%

    19 Oktober, Freitag

    Zeit Temperatur Niederschläge Wind Luftdruck Luftfeuchtigkeit
    00:00 +12°C° 0 mm 3 m/S 765 mmHg 91%
    01:00 +12°C° 0 mm 3 m/S 765 mmHg 92%
    02:00 +11°C° 0 mm 3 m/S 765 mmHg 91%
    03:00 +11°C° 0 mm 3 m/S 765 mmHg 90%
    04:00 +11°C° 0 mm 3 m/S 765 mmHg 89%
    05:00 +11°C° 0 mm 3 m/S 765 mmHg 89%
    06:00 +10°C° 0 mm 3 m/S 765 mmHg 89%
    07:00 +10°C° 0 mm 3 m/S 765 mmHg 89%
    08:00 +11°C° 0 mm 3 m/S 765 mmHg 83%
    09:00 +12°C° 0 mm 3 m/S 766 mmHg 76%
    10:00 +13°C° 0 mm 4 m/S 766 mmHg 70%
    11:00 +13°C° 0 mm 4 m/S 766 mmHg 68%
    12:00 +14°C° 0 mm 4 m/S 766 mmHg 65%
    13:00 +14°C° 0 mm 4 m/S 766 mmHg 63%
    14:00 +13°C° 0 mm 4 m/S 766 mmHg 65%
    15:00 +13°C° 0 mm 4 m/S 766 mmHg 68%
    16:00 +12°C° 0 mm 4 m/S 765 mmHg 71%
    17:00 +11°C° 0 mm 4 m/S 766 mmHg 76%
    18:00 +10°C° 0 mm 4 m/S 766 mmHg 81%
    19:00 +9°C° 0 mm 3 m/S 766 mmHg 86%
    20:00 +8°C° 0 mm 3 m/S 766 mmHg 87%
    21:00 +8°C° 0 mm 3 m/S 766 mmHg 88%
    22:00 +8°C° 0 mm 3 m/S 766 mmHg 88%
    23:00 +8°C° 0 mm 3 m/S 766 mmHg 89%

    20 Oktober, Samstag

    Zeit Temperatur Niederschläge Wind Luftdruck Luftfeuchtigkeit
    00:00 +7°C° 0 mm 4 m/S 767 mmHg 90%
    01:00 +6°C° 0 mm 4 m/S 767 mmHg 91%
    02:00 +6°C° 0 mm 4 m/S 767 mmHg 91%
    03:00 +6°C° 0 mm 4 m/S 767 mmHg 91%
    04:00 +6°C° 0 mm 5 m/S 767 mmHg 91%
    05:00 +7°C° 0 mm 4 m/S 767 mmHg 89%
    06:00 +7°C° 0 mm 4 m/S 767 mmHg 86%
    07:00 +7°C° 0 mm 4 m/S 768 mmHg 84%
    08:00 +8°C° 0 mm 5 m/S 768 mmHg 79%
    09:00 +9°C° 0 mm 5 m/S 768 mmHg 74%
    10:00 +10°C° 0 mm 5 m/S 768 mmHg 69%
    11:00 +10°C° 0 mm 5 m/S 768 mmHg 67%
    12:00 +11°C° 0 mm 6 m/S 768 mmHg 66%
    13:00 +11°C° 0 mm 6 m/S 768 mmHg 65%
    14:00 +11°C° 0 mm 6 m/S 768 mmHg 68%
    15:00 +11°C° 0 mm 6 m/S 768 mmHg 70%
    16:00 +10°C° 0 mm 6 m/S 768 mmHg 73%
    17:00 +10°C° 0 mm 5 m/S 768 mmHg 76%
    18:00 +10°C° 0 mm 5 m/S 768 mmHg 79%
    19:00 +9°C° 0 mm 5 m/S 769 mmHg 82%
    20:00 +9°C° 0 mm 5 m/S 769 mmHg 84%
    21:00 +9°C° 0 mm 5 m/S 769 mmHg 86%
    22:00 +10°C° 0 mm 4 m/S 769 mmHg 88%
    23:00 +8°C° 0 mm 5 m/S 769 mmHg 90%
    Mehr zeigen